N5KR Weather Reports


Display with metric or nautical units.
time (UTC)temp
F
wind
direction
speed
MPH
gust
MPH
rain 1hr
in
rain 24hr
in
rain mn
in
humidity
%
barometer
mb
20260505010506 77 193 8.0 14.0 0.00 0.00 0.00 63 1006.5
20260505005506 77 174 8.0 20.0 0.00 0.00 0.00 62 1006.4
20260505005006 77 173 12.0 20.0 0.00 0.00 0.00 62 1006.6
20260505004505 77 181 10.0 23.0 0.00 0.00 0.00 62 1006.5
20260505003006 78 198 7.0 17.0 0.00 0.00 0.00 61 1006.6
20260505002506 78 196 9.0 18.0 0.00 0.00 0.00 61 1006.6
20260505002005 78 188 14.0 24.0 0.00 0.00 0.00 61 1006.7
20260505001506 78 182 12.0 22.0 0.00 0.00 0.00 60 1006.8
20260505001006 78 184 12.0 30.0 0.00 0.00 0.00 60 1006.6
20260505000505 78 191 10.0 20.0 0.00 0.00 0.00 60 1006.6
20260504235006 79 175 13.0 24.0 0.00 0.00 0.00 59 1006.8
20260504234006 79 197 11.0 23.0 0.00 0.00 0.00 59 1006.9
20260504233505 79 197 11.0 23.0 0.00 0.00 0.00 59 1006.9
20260504233006 79 169 12.0 18.0 0.00 0.00 0.00 59 1006.8
20260504232505 79 188 13.0 26.0 0.00 0.00 0.00 58 1006.8
20260504231506 80 195 13.0 21.0 0.00 0.00 0.00 57 1007.0
20260504231005 80 180 12.0 26.0 0.00 0.00 0.00 57 1007.1
20260504230505 80 211 7.0 14.0 0.00 0.00 0.00 57 1007.1
20260504230006 80 192 12.0 22.0 0.00 0.00 0.00 56 1007.1
20260504225505 81 179 11.0 24.0 0.00 0.00 0.00 56 1007.1
20260504225006 81 183 9.0 21.0 0.00 0.00 0.00 56 1007.1
20260504224505 81 196 13.0 21.0 0.00 0.00 0.00 56 1007.2
20260504224005 81 198 12.0 25.0 0.00 0.00 0.00 56 1007.3
20260504223505 81 185 11.0 20.0 0.00 0.00 0.00 55 1007.2
20260504223006 81 176 12.0 26.0 0.00 0.00 0.00 55 1007.1
20260504222505 81 205 10.0 17.0 0.00 0.00 0.00 55 1007.2
20260504222005 81 180 12.0 33.0 0.00 0.00 0.00 55 1007.2
20260504221506 81 192 12.0 31.0 0.00 0.00 0.00 54 1007.3
20260504221005 81 188 10.0 23.0 0.00 0.00 0.00 54 1007.4
20260504220505 81 182 11.0 24.0 0.00 0.00 0.00 55 1007.6
20260504220006 81 180 13.0 22.0 0.00 0.00 0.00 55 1007.6
20260504215006 82 202 10.0 24.0 0.00 0.00 0.00 54 1007.8
20260504214506 82 182 14.0 25.0 0.00 0.00 0.00 54 1007.8
20260504214005 81 175 9.0 22.0 0.00 0.00 0.00 54 1008.0
20260504213505 81 189 10.0 22.0 0.00 0.00 0.00 55 1007.9
20260504213006 81 174 13.0 24.0 0.00 0.00 0.00 54 1007.9
20260504211505 81 189 10.0 18.0 0.00 0.00 0.00 53 1008.3
20260504211005 81 184 12.0 22.0 0.00 0.00 0.00 53 1008.3
20260504210006 81 178 10.0 25.0 0.00 0.00 0.00 54 1008.6
20260504205505 81 175 15.0 25.0 0.00 0.00 0.00 53 1008.6
20260504205005 81 170 9.0 28.0 0.00 0.00 0.00 53 1008.7
20260504204505 81 164 9.0 21.0 0.00 0.00 0.00 53 1008.9
20260504204005 82 170 14.0 28.0 0.00 0.00 0.00 52 1008.9
20260504203505 82 176 12.0 23.0 0.00 0.00 0.00 52 1009.1
20260504203006 82 194 11.0 24.0 0.00 0.00 0.00 52 1009.0
20260504202505 82 170 16.0 30.0 0.00 0.00 0.00 51 1009.2
20260504202006 81 172 14.0 23.0 0.00 0.00 0.00 52 1009.4
20260504201505 82 174 15.0 23.0 0.00 0.00 0.00 51 1009.6
20260504201005 82 188 12.0 28.0 0.00 0.00 0.00 51 1009.5
20260504200505 82 183 14.0 26.0 0.00 0.00 0.00 50 1009.7
20260504200005 82 200 6.0 21.0 0.00 0.00 0.00 52 1009.8
20260504195505 81 201 12.0 21.0 0.00 0.00 0.00 52 1009.9
20260504195005 81 179 10.0 32.0 0.00 0.00 0.00 51 1010.0
20260504194505 82 182 12.0 30.0 0.00 0.00 0.00 50 1010.0
20260504193506 82 195 13.0 23.0 0.00 0.00 0.00 49 1010.0
20260504192505 82 178 12.0 28.0 0.00 0.00 0.00 50 1010.2
20260504192005 81 192 12.0 25.0 0.00 0.00 0.00 50 1010.5
20260504191505 81 186 9.0 17.0 0.00 0.00 0.00 51 1010.5
20260504191005 80 169 16.0 28.0 0.00 0.00 0.00 51 1010.6
20260504190505 81 165 9.0 23.0 0.00 0.00 0.00 50 1010.6
20260504190005 81 182 9.0 21.0 0.00 0.00 0.00 51 1010.6
20260504185505 81 174 5.0 20.0 0.00 0.00 0.00 52 1010.6
20260504185005 80 178 8.0 18.0 0.00 0.00 0.00 51 1010.7
20260504184505 80 169 11.0 18.0 0.00 0.00 0.00 50 1010.7
20260504184005 80 183 10.0 21.0 0.00 0.00 0.00 50 1010.8
20260504183005 80 177 13.0 22.0 0.00 0.00 0.00 50 1010.8
20260504182505 79 160 13.0 24.0 0.00 0.00 0.00 50 1011.0
20260504182005 80 157 11.0 20.0 0.00 0.00 0.00 49 1011.1
20260504181505 80 187 7.0 16.0 0.00 0.00 0.00 49 1011.3
20260504181005 80 198 9.0 17.0 0.00 0.00 0.00 49 1011.2
20260504180505 80 217 7.0 15.0 0.00 0.00 0.00 49 1011.1
20260504180005 79 191 8.0 25.0 0.00 0.00 0.00 49 1011.3
20260504175505 79 184 10.0 22.0 0.00 0.00 0.00 49 1011.2
20260504174505 79 171 12.0 24.0 0.00 0.00 0.00 49 1011.6
20260504174005 79 202 6.0 21.0 0.00 0.00 0.00 49 1011.7
20260504172004 77 181 12.0 26.0 0.00 0.00 0.00 49 1012.3
20260504171505 78 192 10.0 28.0 0.00 0.00 0.00 49 1012.3
20260504171004 78 189 9.0 20.0 0.00 0.00 0.00 49 1012.4
20260504170505 77 206 8.0 17.0 0.00 0.00 0.00 50 1012.5
20260504151005 72 196 7.0 16.0 0.00 0.00 0.00 57 1013.6
20260504150505 72 192 12.0 24.0 0.00 0.00 0.00 58 1013.5
20260504110504 64 181 3.0 10.0 0.00 0.00 0.00 65 1013.1
20260504100504 65 195 5.0 12.0 0.00 0.00 0.00 65 1013.8
20260504082004 66 183 5.0 12.0 0.00 0.00 0.00 54 1014.1
20260504081504 66 201 6.0 14.0 0.00 0.00 0.00 54 1014.2
20260504081004 66 213 6.0 9.0 0.00 0.00 0.00 54 1014.3
20260504080504 66 196 7.0 16.0 0.00 0.00 0.00 53 1014.3
20260504050506 69 187 3.0 8.0 0.00 0.00 0.00 51 1016.3
20260504050006 69 175 3.0 7.0 0.00 0.00 0.00 50 1016.3
20260504045506 69 188 4.0 7.0 0.00 0.00 0.00 50 1016.4
20260504045007 69 179 3.0 9.0 0.00 0.00 0.00 50 1016.5
20260504044506 69 187 2.0 9.0 0.00 0.00 0.00 49 1016.4
20260504044006 69 197 2.0 7.0 0.00 0.00 0.00 49 1016.5
20260504043506 69 183 2.0 7.0 0.00 0.00 0.00 48 1016.5
20260504043007 70 190 2.0 8.0 0.00 0.00 0.00 48 1016.4
20260504042506 70 174 4.0 8.0 0.00 0.00 0.00 47 1016.5
20260504042006 70 179 2.0 7.0 0.00 0.00 0.00 47 1016.5
20260504041506 70 184 6.0 12.0 0.00 0.00 0.00 46 1016.5
20260504041006 71 192 5.0 8.0 0.00 0.00 0.00 46 1016.5
20260504040506 71 194 6.0 12.0 0.00 0.00 0.00 45 1016.6
20260504040006 71 193 4.0 10.0 0.00 0.00 0.00 45 1016.5
20260504035507 71 193 4.0 10.0 0.00 0.00 0.00 45 1016.5
20260504035007 71 178 6.0 13.0 0.00 0.00 0.00 44 1016.5
20260504034507 71 193 6.0 13.0 0.00 0.00 0.00 44 1016.4
20260504033506 71 184 5.0 13.0 0.00 0.00 0.00 44 1016.4
20260504033006 71 184 5.0 13.0 0.00 0.00 0.00 44 1016.4
20260504032506 71 199 5.0 12.0 0.00 0.00 0.00 44 1016.5
20260504032006 71 181 5.0 12.0 0.00 0.00 0.00 44 1016.5
20260504031006 72 181 5.0 9.0 0.00 0.00 0.00 44 1016.3
20260504025506 72 173 4.0 10.0 0.00 0.00 0.00 43 1016.2
20260504025006 72 193 5.0 9.0 0.00 0.00 0.00 43 1016.2
20260504024506 72 178 5.0 9.0 0.00 0.00 0.00 43 1016.3
20260504024006 73 181 5.0 10.0 0.00 0.00 0.00 43 1016.4
20260504023506 73 188 3.0 13.0 0.00 0.00 0.00 43 1016.3
20260504023005 73 178 6.0 13.0 0.00 0.00 0.00 42 1016.3
20260504022506 73 183 3.0 10.0 0.00 0.00 0.00 42 1016.4
20260504022006 73 188 6.0 13.0 0.00 0.00 0.00 41 1016.3
20260504021506 74 182 5.0 14.0 0.00 0.00 0.00 41 1016.2
20260504021006 74 191 5.0 13.0 0.00 0.00 0.00 41 1016.2
20260504020506 74 189 7.0 14.0 0.00 0.00 0.00 41 1016.1
20260504020006 74 187 5.0 13.0 0.00 0.00 0.00 41 1016.1
20260504015006 74 188 5.0 10.0 0.00 0.00 0.00 40 1016.1
20260504014505 74 174 4.0 13.0 0.00 0.00 0.00 40 1016.1
20260504014006 75 182 5.0 13.0 0.00 0.00 0.00 39 1015.9
20260504013506 75 180 8.0 15.0 0.00 0.00 0.00 38 1016.0
20260504013006 75 191 5.0 8.0 0.00 0.00 0.00 37 1015.9
20260504012506 75 179 4.0 8.0 0.00 0.00 0.00 36 1015.9
20260504012005 75 195 6.0 12.0 0.00 0.00 0.00 36 1015.8
20260504011505 75 196 5.0 13.0 0.00 0.00 0.00 36 1016.0